Location: Great Snoring
(52.8667°N, 0.8833°E)
Time: 20:51:54
(UTC+00:00)

Cosmos 2341 Rocket - Pass Details

Date: 19 May 2025
Orbit: 966 x 1004 km, 82.9° (Epoch: 18 June)

Event Time Altitude Azimuth Distance (km) Brightness Sun altitude
Rises 21:36:25 0° 347° (NNW) 3,700 8.5 -11.4°
Reaches altitude 10° 21:38:58 10° 345° (NNW) 2,742 7.7 -11.6°
Maximum altitude 21:45:09 64° 266° (W) 1,071 4.3 -12.1°
Drops below altitude 10° 21:51:15 10° 186° (S) 2,705 5.8 -12.5°
Enters shadow 21:51:18 10° 186° (S) 2,723 5.9 -12.5°
